Time,TemperatureF,DewpointF,PressureIn,WindDirection,WindDirectionDegrees,WindSpeedMPH,WindSpeedGustMPH,Humidity,HourlyPrecipIn,Conditions,Clouds,dailyrainin,SoftwareType,DateUTC
2013-02-19 00:00:00,35.2,29.4,28.08,South,169,0.0,0.0,79,0.00,,---,0.00,VWS V14.01,2013-02-19 08:00:00,
2013-02-19 00:05:00,35.1,29.2,28.08,South,169,0.0,0.0,79,0.00,,---,0.00,VWS V14.01,2013-02-19 08:05:00,
2013-02-19 00:10:00,35.1,29.2,28.08,South,169,0.0,0.0,79,0.00,,---,0.00,VWS V14.01,2013-02-19 08:10:00,
2013-02-19 00:15:00,35.1,29.2,28.08,South,169,0.0,0.0,79,0.00,,---,0.00,VWS V14.01,2013-02-19 08:15:00,
2013-02-19 00:20:00,34.9,29.0,28.08,South,169,0.0,0.0,79,0.00,,---,0.00,VWS V14.01,2013-02-19 08:20:00,
2013-02-19 00:25:00,34.9,29.0,28.08,South,169,0.0,0.0,79,0.00,,---,0.00,VWS V14.01,2013-02-19 08:25:00,
2013-02-19 00:30:00,35.1,29.5,28.08,South,169,0.0,0.0,80,0.00,,---,0.00,VWS V14.01,2013-02-19 08:30:00,
2013-02-19 00:35:00,35.1,29.5,28.08,South,169,0.0,0.0,80,0.00,,---,0.00,VWS V14.01,2013-02-19 08:35:00,
2013-02-19 00:40:00,35.1,29.5,28.08,South,169,0.0,0.0,80,0.00,,---,0.00,VWS V14.01,2013-02-19 08:40:00,
2013-02-19 00:45:00,35.1,29.5,28.08,South,169,0.0,0.0,80,0.00,,---,0.00,VWS V14.01,2013-02-19 08:45:00,
2013-02-19 00:50:00,35.1,29.8,28.08,South,169,0.0,0.0,81,0.00,,---,0.00,VWS V14.01,2013-02-19 08:50:00,
2013-02-19 00:55:00,35.1,29.8,28.08,South,169,0.0,0.0,81,0.00,,---,0.00,VWS V14.01,2013-02-19 08:55:00,
2013-02-19 01:00:00,34.9,29.6,28.08,South,169,0.0,0.0,81,0.00,,---,0.00,VWS V14.01,2013-02-19 09:00:00,
2013-02-19 01:05:00,34.9,29.6,28.08,South,169,0.0,0.0,81,0.00,,---,0.00,VWS V14.01,2013-02-19 09:05:00,
2013-02-19 01:10:00,34.9,29.6,28.08,South,169,0.0,0.0,81,0.00,,---,0.00,VWS V14.01,2013-02-19 09:10:00,
2013-02-19 01:15:00,34.9,29.6,28.08,South,169,0.0,0.0,81,0.00,,---,0.00,VWS V14.01,2013-02-19 09:15:00,
2013-02-19 01:20:00,34.9,29.6,28.08,South,169,0.0,0.0,81,0.00,,---,0.00,VWS V14.01,2013-02-19 09:20:00,
2013-02-19 01:25:00,34.9,29.6,28.08,South,169,0.0,0.0,81,0.00,,---,0.00,VWS V14.01,2013-02-19 09:25:00,
2013-02-19 01:30:00,34.9,29.6,28.08,South,169,0.0,0.0,81,0.00,,---,0.00,VWS V14.01,2013-02-19 09:30:00,
2013-02-19 01:35:00,35.1,29.5,28.08,South,169,0.0,0.0,80,0.00,,---,0.00,VWS V14.01,2013-02-19 09:35:00,
2013-02-19 01:40:00,34.7,29.2,28.08,South,169,0.0,0.0,80,0.00,,---,0.00,VWS V14.01,2013-02-19 09:40:00,
2013-02-19 01:45:00,34.9,29.6,28.08,South,169,0.0,0.0,81,0.00,,---,0.00,VWS V14.01,2013-02-19 09:45:00,
2013-02-19 01:50:00,34.9,29.6,28.08,South,169,0.0,0.0,81,0.00,,---,0.00,VWS V14.01,2013-02-19 09:50:00,
2013-02-19 01:55:00,34.7,29.5,28.08,South,169,0.0,0.0,81,0.00,,---,0.00,VWS V14.01,2013-02-19 09:55:00,
2013-02-19 02:00:00,34.5,29.3,28.08,South,169,0.0,0.0,81,0.00,,---,0.00,VWS V14.01,2013-02-19 10:00:00,
2013-02-19 02:05:00,34.2,29.0,28.08,South,169,0.0,0.0,81,0.00,,---,0.00,VWS V14.01,2013-02-19 10:05:00,
2013-02-19 02:10:00,34.2,29.0,28.08,South,169,0.0,0.0,81,0.00,,---,0.00,VWS V14.01,2013-02-19 10:10:00,
2013-02-19 02:15:00,34.2,29.2,28.08,South,169,2.7,2.7,82,0.00,,---,0.00,VWS V14.01,2013-02-19 10:15:00,
2013-02-19 02:20:00,34.2,29.2,28.08,South,169,2.7,3.1,82,0.00,,---,0.00,VWS V14.01,2013-02-19 10:20:00,
2013-02-19 02:25:00,34.2,29.2,28.05,South,169,0.0,0.0,82,0.00,,---,0.00,VWS V14.01,2013-02-19 10:25:00,
2013-02-19 02:30:00,34.0,29.1,28.05,South,169,0.0,0.0,82,0.00,,---,0.00,VWS V14.01,2013-02-19 10:30:00,
2013-02-19 02:35:00,33.8,28.9,28.05,South,169,0.0,0.0,82,0.00,,---,0.00,VWS V14.01,2013-02-19 10:35:00,
2013-02-19 02:40:00,33.6,29.0,28.05,South,169,0.0,0.0,83,0.00,,---,0.00,VWS V14.01,2013-02-19 10:40:00,
2013-02-19 02:45:00,33.6,29.0,28.05,South,169,0.0,0.0,83,0.00,,---,0.00,VWS V14.01,2013-02-19 10:45:00,
2013-02-19 02:50:00,33.4,28.8,28.05,South,169,0.0,0.0,83,0.00,,---,0.00,VWS V14.01,2013-02-19 10:50:00,
2013-02-19 02:55:00,33.3,28.7,28.05,South,169,0.0,0.0,83,0.00,,---,0.00,VWS V14.01,2013-02-19 10:55:00,
2013-02-19 03:00:00,33.3,28.7,28.05,South,169,0.0,0.0,83,0.00,,---,0.00,VWS V14.01,2013-02-19 11:00:00,
2013-02-19 03:05:00,33.3,28.7,28.05,South,169,0.0,0.0,83,0.00,,---,0.00,VWS V14.01,2013-02-19 11:05:00,
2013-02-19 03:10:00,33.3,28.7,28.05,South,169,0.0,0.0,83,0.00,,---,0.00,VWS V14.01,2013-02-19 11:10:00,
2013-02-19 03:15:00,33.3,29.0,28.05,South,169,0.0,0.0,84,0.00,,---,0.00,VWS V14.01,2013-02-19 11:15:00,
2013-02-19 03:20:00,33.3,29.0,28.05,South,169,0.0,0.0,84,0.00,,---,0.00,VWS V14.01,2013-02-19 11:20:00,
2013-02-19 03:25:00,33.1,28.8,28.05,South,169,0.0,0.0,84,0.00,,---,0.00,VWS V14.01,2013-02-19 11:25:00,
2013-02-19 03:30:00,33.1,28.8,28.05,South,169,0.0,0.0,84,0.00,,---,0.00,VWS V14.01,2013-02-19 11:30:00,
2013-02-19 03:35:00,33.1,28.8,28.05,South,169,0.0,0.0,84,0.00,,---,0.00,VWS V14.01,2013-02-19 11:35:00,
2013-02-19 03:40:00,33.1,29.1,28.05,South,169,0.0,0.0,85,0.00,,---,0.00,VWS V14.01,2013-02-19 11:40:00,
2013-02-19 03:45:00,32.9,29.2,28.05,South,169,0.0,0.0,86,0.00,,---,0.00,VWS V14.01,2013-02-19 11:45:00,
2013-02-19 03:50:00,32.7,29.0,28.05,South,169,0.0,0.0,86,0.00,,---,0.00,VWS V14.01,2013-02-19 11:50:00,
2013-02-19 03:55:00,32.9,28.9,28.05,South,169,0.0,0.0,85,0.00,,---,0.00,VWS V14.01,2013-02-19 11:55:00,
2013-02-19 04:00:00,32.9,28.9,28.05,South,169,0.0,0.0,85,0.00,,---,0.00,VWS V14.01,2013-02-19 12:00:00,
2013-02-19 04:05:00,32.7,28.7,28.05,South,169,0.0,0.0,85,0.00,,---,0.00,VWS V14.01,2013-02-19 12:05:00,
2013-02-19 04:10:00,32.7,28.7,28.05,South,169,0.0,0.0,85,0.00,,---,0.00,VWS V14.01,2013-02-19 12:10:00,
2013-02-19 04:15:00,32.7,28.7,28.05,South,169,0.0,0.0,85,0.00,,---,0.00,VWS V14.01,2013-02-19 12:15:00,
2013-02-19 04:20:00,32.7,28.7,28.05,South,169,0.0,0.0,85,0.00,,---,0.00,VWS V14.01,2013-02-19 12:20:00,
2013-02-19 04:25:00,32.7,28.7,28.05,South,169,0.0,0.0,85,0.00,,---,0.00,VWS V14.01,2013-02-19 12:25:00,
2013-02-19 04:30:00,32.7,28.7,28.05,South,169,0.0,0.0,85,0.00,,---,0.00,VWS V14.01,2013-02-19 12:30:00,
2013-02-19 04:35:00,32.7,28.7,28.05,South,169,0.0,0.0,85,0.00,,---,0.00,VWS V14.01,2013-02-19 12:35:00,
2013-02-19 04:40:00,32.7,28.7,28.05,South,169,0.0,0.0,85,0.00,,---,0.00,VWS V14.01,2013-02-19 12:40:00,
2013-02-19 04:45:00,32.5,28.5,28.05,South,169,0.0,0.0,85,0.00,,---,0.00,VWS V14.01,2013-02-19 12:45:00,
2013-02-19 04:50:00,32.5,28.5,28.05,South,169,0.0,0.0,85,0.00,,---,0.00,VWS V14.01,2013-02-19 12:50:00,
2013-02-19 04:55:00,32.5,28.5,28.05,South,169,0.0,0.0,85,0.00,,---,0.00,VWS V14.01,2013-02-19 12:55:00,
2013-02-19 05:00:00,32.5,28.5,28.05,South,169,0.0,0.0,85,0.00,,---,0.00,VWS V14.01,2013-02-19 13:00:00,
2013-02-19 05:05:00,32.4,28.4,28.05,South,169,0.0,0.0,85,0.00,,---,0.00,VWS V14.01,2013-02-19 13:05:00,
2013-02-19 05:10:00,32.4,28.4,28.05,South,169,0.0,0.0,85,0.00,,---,0.00,VWS V14.01,2013-02-19 13:10:00,
2013-02-19 05:15:00,32.2,28.2,28.05,South,169,0.0,0.0,85,0.00,,---,0.00,VWS V14.01,2013-02-19 13:15:00,
2013-02-19 05:20:00,32.2,28.2,28.05,South,169,0.0,0.0,85,0.00,,---,0.00,VWS V14.01,2013-02-19 13:20:00,
2013-02-19 05:25:00,32.2,28.5,28.05,South,169,0.0,0.0,86,0.00,,---,0.00,VWS V14.01,2013-02-19 13:25:00,
2013-02-19 05:30:00,32.2,28.5,28.05,South,169,0.0,0.0,86,0.00,,---,0.00,VWS V14.01,2013-02-19 13:30:00,
2013-02-19 05:35:00,32.4,28.6,28.05,South,169,0.0,0.0,86,0.00,,---,0.00,VWS V14.01,2013-02-19 13:35:00,
2013-02-19 05:40:00,32.4,28.6,28.05,South,169,0.0,0.0,86,0.00,,---,0.00,VWS V14.01,2013-02-19 13:40:00,
2013-02-19 05:45:00,32.5,28.8,28.05,South,169,0.0,0.0,86,0.00,,---,0.00,VWS V14.01,2013-02-19 13:45:00,
2013-02-19 05:50:00,32.5,28.8,28.05,South,169,0.0,0.0,86,0.00,,---,0.00,VWS V14.01,2013-02-19 13:50:00,
2013-02-19 05:55:00,32.9,29.5,28.05,South,169,0.0,0.0,87,0.00,,---,0.00,VWS V14.01,2013-02-19 13:55:00,
2013-02-19 06:00:00,32.9,29.5,28.05,South,169,0.0,0.0,87,0.00,,---,0.00,VWS V14.01,2013-02-19 14:00:00,
2013-02-19 06:05:00,33.1,29.6,28.08,South,169,0.0,0.0,87,0.00,,---,0.00,VWS V14.01,2013-02-19 14:05:00,
2013-02-19 06:10:00,33.1,29.6,28.08,South,169,0.0,0.0,87,0.00,,---,0.00,VWS V14.01,2013-02-19 14:10:00,
2013-02-19 06:15:00,33.1,29.6,28.08,South,169,0.0,0.0,87,0.00,,---,0.00,VWS V14.01,2013-02-19 14:15:00,
2013-02-19 06:20:00,33.4,30.0,28.08,South,169,0.0,0.0,87,0.00,,---,0.00,VWS V14.01,2013-02-19 14:20:00,
2013-02-19 06:25:00,33.3,29.8,28.08,South,169,0.0,0.0,87,0.00,,---,0.00,VWS V14.01,2013-02-19 14:25:00,
2013-02-19 06:30:00,33.3,29.8,28.08,South,169,0.0,0.0,87,0.00,,---,0.00,VWS V14.01,2013-02-19 14:30:00,
2013-02-19 06:35:00,33.3,29.8,28.08,South,169,0.0,0.0,87,0.00,,---,0.00,VWS V14.01,2013-02-19 14:35:00,
2013-02-19 06:40:00,33.4,30.0,28.08,South,169,0.0,0.0,87,0.00,,---,0.00,VWS V14.01,2013-02-19 14:40:00,
2013-02-19 06:45:00,33.4,30.0,28.08,South,169,0.0,0.0,87,0.00,,---,0.00,VWS V14.01,2013-02-19 14:45:00,
2013-02-19 06:50:00,33.3,30.1,28.08,South,169,0.0,0.0,88,0.00,,---,0.00,VWS V14.01,2013-02-19 14:50:00,
2013-02-19 06:55:00,33.4,30.3,28.08,South,169,0.0,0.0,88,0.00,,---,0.00,VWS V14.01,2013-02-19 14:55:00,
2013-02-19 07:00:00,33.6,30.5,28.08,South,169,0.0,0.0,88,0.00,,---,0.00,VWS V14.01,2013-02-19 15:00:00,
2013-02-19 07:05:00,33.6,30.5,28.08,South,169,0.0,0.0,88,0.00,,---,0.00,VWS V14.01,2013-02-19 15:05:00,
2013-02-19 07:10:00,33.6,30.5,28.08,South,169,0.0,0.0,88,0.00,,---,0.00,VWS V14.01,2013-02-19 15:10:00,
2013-02-19 07:15:00,33.3,30.1,28.08,South,169,0.0,0.0,88,0.00,,---,0.00,VWS V14.01,2013-02-19 15:15:00,
2013-02-19 07:20:00,33.3,30.1,28.08,South,169,0.0,0.0,88,0.00,,---,0.00,VWS V14.01,2013-02-19 15:20:00,
2013-02-19 07:25:00,33.6,30.5,28.08,South,169,0.0,0.0,88,0.00,,---,0.00,VWS V14.01,2013-02-19 15:25:00,
2013-02-19 07:30:00,33.8,30.6,28.08,South,169,0.0,0.0,88,0.00,,---,0.00,VWS V14.01,2013-02-19 15:30:00,
2013-02-19 07:35:00,34.2,31.0,28.08,South,169,0.0,0.0,88,0.00,,---,0.00,VWS V14.01,2013-02-19 15:35:00,
2013-02-19 07:40:00,34.2,31.0,28.08,South,169,0.0,0.0,88,0.00,,---,0.00,VWS V14.01,2013-02-19 15:40:00,
2013-02-19 07:45:00,34.3,31.2,28.08,South,169,0.0,0.0,88,0.00,,---,0.00,VWS V14.01,2013-02-19 15:45:00,
2013-02-19 07:50:00,34.3,31.2,28.08,South,169,0.0,0.0,88,0.00,,---,0.00,VWS V14.01,2013-02-19 15:50:00,
2013-02-19 07:55:00,34.7,31.5,28.08,South,169,0.0,0.0,88,0.00,,---,0.00,VWS V14.01,2013-02-19 15:55:00,
2013-02-19 08:00:00,34.9,31.7,28.08,South,169,0.0,0.0,88,0.00,,---,0.00,VWS V14.01,2013-02-19 16:00:00,
2013-02-19 08:05:00,35.1,31.9,28.11,South,169,0.0,0.0,88,0.00,,---,0.00,VWS V14.01,2013-02-19 16:05:00,
2013-02-19 08:10:00,35.1,31.9,28.11,South,169,0.0,0.0,88,0.00,,---,0.00,VWS V14.01,2013-02-19 16:10:00,
2013-02-19 08:15:00,35.1,31.9,28.11,South,169,0.0,0.0,88,0.00,,---,0.00,VWS V14.01,2013-02-19 16:15:00,
2013-02-19 08:20:00,35.6,32.4,28.11,South,169,0.0,0.0,88,0.00,,---,0.00,VWS V14.01,2013-02-19 16:20:00,
2013-02-19 08:25:00,36.0,32.8,28.11,South,169,0.0,0.0,88,0.00,,---,0.00,VWS V14.01,2013-02-19 16:25:00,
2013-02-19 08:30:00,36.0,32.8,28.11,South,169,0.0,0.0,88,0.00,,---,0.00,VWS V14.01,2013-02-19 16:30:00,
2013-02-19 08:35:00,35.6,32.1,28.11,South,169,0.0,0.0,87,0.00,,---,0.00,VWS V14.01,2013-02-19 16:35:00,
2013-02-19 08:40:00,35.6,32.1,28.11,South,169,0.0,0.0,87,0.00,,---,0.00,VWS V14.01,2013-02-19 16:40:00,
2013-02-19 08:45:00,36.3,33.1,28.11,South,169,0.0,0.0,88,0.00,,---,0.00,VWS V14.01,2013-02-19 16:45:00,
2013-02-19 08:50:00,36.5,33.3,28.11,South,169,0.0,0.0,88,0.00,,---,0.00,VWS V14.01,2013-02-19 16:50:00,
2013-02-19 08:55:00,37.0,33.8,28.11,South,169,0.0,0.0,88,0.00,,---,0.00,VWS V14.01,2013-02-19 16:55:00,
2013-02-19 09:00:00,37.4,33.9,28.11,South,169,0.0,0.0,87,0.00,,---,0.00,VWS V14.01,2013-02-19 17:00:00,
2013-02-19 09:05:00,37.6,34.1,28.11,South,169,0.0,0.0,87,0.00,,---,0.00,VWS V14.01,2013-02-19 17:05:00,
2013-02-19 09:10:00,37.8,34.0,28.11,South,169,0.0,0.0,86,0.00,,---,0.00,VWS V14.01,2013-02-19 17:10:00,
2013-02-19 09:15:00,37.8,33.7,28.11,South,169,0.0,0.0,85,0.00,,---,0.00,VWS V14.01,2013-02-19 17:15:00,
2013-02-19 09:20:00,38.1,33.4,28.11,South,169,0.0,0.0,83,0.00,,---,0.00,VWS V14.01,2013-02-19 17:20:00,
2013-02-19 09:25:00,38.1,32.8,28.11,South,169,0.0,0.0,81,0.00,,---,0.00,VWS V14.01,2013-02-19 17:25:00,
2013-02-19 09:30:00,39.0,33.7,28.11,South,169,0.0,0.0,81,0.00,,---,0.00,VWS V14.01,2013-02-19 17:30:00,
2013-02-19 09:35:00,39.7,34.1,28.11,South,169,0.0,0.0,80,0.00,,---,0.00,VWS V14.01,2013-02-19 17:35:00,
2013-02-19 09:40:00,40.3,34.0,28.11,South,169,0.0,0.0,78,0.00,,---,0.00,VWS V14.01,2013-02-19 17:40:00,
2013-02-19 09:45:00,40.6,33.7,28.11,South,169,0.0,0.0,76,0.00,,---,0.00,VWS V14.01,2013-02-19 17:45:00,
2013-02-19 09:50:00,40.6,32.7,28.11,South,169,0.0,0.0,73,0.00,,---,0.00,VWS V14.01,2013-02-19 17:50:00,
2013-02-19 09:55:00,40.8,32.5,28.11,South,169,0.0,0.0,72,0.00,,---,0.00,VWS V14.01,2013-02-19 17:55:00,
2013-02-19 10:00:00,41.2,32.8,28.11,South,169,0.0,0.0,72,0.00,,---,0.00,VWS V14.01,2013-02-19 18:00:00,
2013-02-19 10:05:00,41.9,33.9,28.11,South,169,0.0,0.0,73,0.00,,---,0.00,VWS V14.01,2013-02-19 18:05:00,
2013-02-19 10:10:00,42.4,33.4,28.11,South,169,0.0,0.0,70,0.00,,---,0.00,VWS V14.01,2013-02-19 18:10:00,
2013-02-19 10:15:00,42.4,33.4,28.11,South,169,0.0,0.0,70,0.00,,---,0.00,VWS V14.01,2013-02-19 18:15:00,
2013-02-19 10:20:00,42.4,30.8,28.11,South,169,0.0,0.0,63,0.00,,---,0.00,VWS V14.01,2013-02-19 18:20:00,
2013-02-19 10:25:00,43.0,33.5,28.11,South,169,0.0,0.0,69,0.00,,---,0.00,VWS V14.01,2013-02-19 18:25:00,
2013-02-19 10:30:00,43.5,32.2,28.11,South,169,0.0,0.0,64,0.00,,---,0.00,VWS V14.01,2013-02-19 18:30:00,
2013-02-19 10:35:00,43.5,30.6,28.11,South,169,3.1,3.1,60,0.00,,---,0.00,VWS V14.01,2013-02-19 18:35:00,
2013-02-19 10:40:00,43.0,29.6,28.11,South,169,0.0,0.0,59,0.00,,---,0.00,VWS V14.01,2013-02-19 18:40:00,
2013-02-19 10:45:00,42.8,30.7,28.11,South,169,0.0,0.0,62,0.00,,---,0.00,VWS V14.01,2013-02-19 18:45:00,
2013-02-19 10:50:00,43.0,30.9,28.11,WSW,253,0.0,0.0,62,0.00,,---,0.00,VWS V14.01,2013-02-19 18:50:00,
2013-02-19 10:55:00,43.3,31.2,28.11,West,280,0.0,0.0,62,0.00,,---,0.00,VWS V14.01,2013-02-19 18:55:00,
2013-02-19 11:00:00,43.0,30.1,28.11,WNW,283,4.9,4.9,60,0.00,,---,0.00,VWS V14.01,2013-02-19 19:00:00,
2013-02-19 11:05:00,43.0,30.5,28.11,WNW,288,4.5,4.5,61,0.00,,---,0.00,VWS V14.01,2013-02-19 19:05:00,
2013-02-19 11:10:00,42.8,29.9,28.11,NNW,330,4.0,4.0,60,0.00,,---,0.00,VWS V14.01,2013-02-19 19:10:00,
2013-02-19 11:15:00,42.8,29.9,28.11,NNW,329,0.0,0.0,60,0.00,,---,0.00,VWS V14.01,2013-02-19 19:15:00,
2013-02-19 11:20:00,43.5,27.1,28.11,NNW,341,4.9,6.3,52,0.00,,---,0.00,VWS V14.01,2013-02-19 19:20:00,
2013-02-19 11:25:00,43.5,27.1,28.11,NW,323,3.1,3.1,52,0.00,,---,0.00,VWS V14.01,2013-02-19 19:25:00,
2013-02-19 11:30:00,43.9,27.9,28.11,NW,307,5.8,5.8,53,0.00,,---,0.00,VWS V14.01,2013-02-19 19:30:00,
2013-02-19 11:35:00,44.4,29.3,28.11,NNW,335,4.0,4.0,55,0.00,,---,0.00,VWS V14.01,2013-02-19 19:35:00,
2013-02-19 11:40:00,43.7,26.8,28.11,NNE,24,3.1,5.4,51,0.00,,---,0.00,VWS V14.01,2013-02-19 19:40:00,
2013-02-19 11:45:00,43.5,26.6,28.11,NNW,342,5.4,5.8,51,0.00,,---,0.00,VWS V14.01,2013-02-19 19:45:00,
2013-02-19 11:50:00,43.0,26.1,28.11,NNE,21,4.9,4.9,51,0.00,,---,0.00,VWS V14.01,2013-02-19 19:50:00,
2013-02-19 11:55:00,43.7,27.7,28.14,NNW,337,5.4,5.4,53,0.00,,---,0.00,VWS V14.01,2013-02-19 19:55:00,
2013-02-19 12:00:00,44.1,28.0,28.14,West,272,4.0,6.7,53,0.00,,---,0.00,VWS V14.01,2013-02-19 20:00:00,
2013-02-19 12:05:00,44.4,27.4,28.14,West,273,0.0,0.0,51,0.00,,---,0.00,VWS V14.01,2013-02-19 20:05:00,
2013-02-19 12:10:00,44.8,28.7,28.14,NW,316,3.6,5.4,53,0.00,,---,0.00,VWS V14.01,2013-02-19 20:10:00,
2013-02-19 12:15:00,44.2,26.8,28.14,North,358,5.8,6.3,50,0.00,,---,0.00,VWS V14.01,2013-02-19 20:15:00,
2013-02-19 12:20:00,44.1,26.6,28.14,NNE,13,4.5,5.8,50,0.00,,---,0.00,VWS V14.01,2013-02-19 20:20:00,
2013-02-19 12:25:00,44.6,26.6,28.14,North,7,3.6,3.6,49,0.00,,---,0.00,VWS V14.01,2013-02-19 20:25:00,
2013-02-19 12:30:00,44.8,26.3,28.14,North,7,4.9,4.9,48,0.00,,---,0.00,VWS V14.01,2013-02-19 20:30:00,
2013-02-19 12:35:00,44.8,25.8,28.14,NNW,339,3.1,3.1,47,0.00,,---,0.00,VWS V14.01,2013-02-19 20:35:00,
2013-02-19 12:40:00,45.3,26.8,28.14,NNW,339,5.4,5.4,48,0.00,,---,0.00,VWS V14.01,2013-02-19 20:40:00,
2013-02-19 12:45:00,45.5,27.0,28.14,North,1,2.7,2.7,48,0.00,,---,0.00,VWS V14.01,2013-02-19 20:45:00,
2013-02-19 12:50:00,46.4,27.8,28.14,West,271,3.6,3.6,48,0.00,,---,0.00,VWS V14.01,2013-02-19 20:50:00,
2013-02-19 12:55:00,46.4,26.2,28.14,North,350,2.7,2.7,45,0.00,,---,0.00,VWS V14.01,2013-02-19 20:55:00,
2013-02-19 13:00:00,46.8,27.6,28.14,NW,309,0.0,3.1,47,0.00,,---,0.00,VWS V14.01,2013-02-19 21:00:00,
2013-02-19 13:05:00,47.1,26.9,28.14,NNW,333,0.0,0.0,45,0.00,,---,0.00,VWS V14.01,2013-02-19 21:05:00,
2013-02-19 13:10:00,47.7,27.4,28.14,West,275,0.0,0.0,45,0.00,,---,0.00,VWS V14.01,2013-02-19 21:10:00,
2013-02-19 13:15:00,47.7,26.8,28.14,NNW,342,5.8,5.8,44,0.00,,---,0.00,VWS V14.01,2013-02-19 21:15:00,
2013-02-19 13:20:00,46.6,25.9,28.14,NNW,346,8.1,11.0,44,0.00,,---,0.00,VWS V14.01,2013-02-19 21:20:00,
2013-02-19 13:25:00,46.8,26.6,28.14,NW,311,6.3,8.1,45,0.00,,---,0.00,VWS V14.01,2013-02-19 21:25:00,
2013-02-19 13:30:00,47.1,27.9,28.14,North,359,5.8,7.6,47,0.00,,---,0.00,VWS V14.01,2013-02-19 21:30:00,
2013-02-19 13:35:00,46.9,27.3,28.14,NNW,344,10.1,10.1,46,0.00,,---,0.00,VWS V14.01,2013-02-19 21:35:00,
2013-02-19 13:40:00,47.1,26.9,28.14,North,1,8.1,8.1,45,0.00,,---,0.00,VWS V14.01,2013-02-19 21:40:00,
2013-02-19 13:45:00,47.7,27.4,28.14,WSW,239,2.7,7.2,45,0.00,,---,0.00,VWS V14.01,2013-02-19 21:45:00,
2013-02-19 13:50:00,47.8,26.4,28.14,West,274,6.7,6.7,43,0.00,,---,0.00,VWS V14.01,2013-02-19 21:50:00,
2013-02-19 13:55:00,47.5,25.5,28.14,WNW,290,5.4,5.4,42,0.00,,---,0.00,VWS V14.01,2013-02-19 21:55:00,
2013-02-19 14:00:00,47.5,25.5,28.14,WNW,288,6.7,6.7,42,0.00,,---,0.00,VWS V14.01,2013-02-19 22:00:00,
2013-02-19 14:05:00,47.5,25.5,28.14,NNW,334,4.0,5.4,42,0.00,,---,0.00,VWS V14.01,2013-02-19 22:05:00,
2013-02-19 14:10:00,47.7,26.3,28.14,WNW,290,5.4,5.4,43,0.00,,---,0.00,VWS V14.01,2013-02-19 22:10:00,
2013-02-19 14:15:00,47.8,27.0,28.14,WNW,290,4.0,5.4,44,0.00,,---,0.00,VWS V14.01,2013-02-19 22:15:00,
2013-02-19 14:20:00,47.8,26.4,28.14,West,281,5.4,8.7,43,0.00,,---,0.00,VWS V14.01,2013-02-19 22:20:00,
2013-02-19 14:25:00,47.3,26.0,28.14,West,273,3.1,4.0,43,0.00,,---,0.00,VWS V14.01,2013-02-19 22:25:00,
2013-02-19 14:30:00,47.1,25.8,28.14,West,273,5.4,5.4,43,0.00,,---,0.00,VWS V14.01,2013-02-19 22:30:00,
2013-02-19 14:35:00,46.9,25.6,28.14,WSW,247,2.2,3.1,43,0.00,,---,0.00,VWS V14.01,2013-02-19 22:35:00,
2013-02-19 14:40:00,47.1,26.3,28.14,North,355,5.8,6.3,44,0.00,,---,0.00,VWS V14.01,2013-02-19 22:40:00,
2013-02-19 14:45:00,47.1,26.9,28.14,SW,230,5.8,6.7,45,0.00,,---,0.00,VWS V14.01,2013-02-19 22:45:00,
2013-02-19 14:50:00,46.9,26.2,28.14,West,272,3.1,3.1,44,0.00,,---,0.00,VWS V14.01,2013-02-19 22:50:00,
2013-02-19 14:55:00,47.7,26.8,28.14,NNW,332,6.7,6.7,44,0.00,,---,0.00,VWS V14.01,2013-02-19 22:55:00,
2013-02-19 15:00:00,46.6,25.9,28.14,North,356,8.7,8.7,44,0.00,,---,0.00,VWS V14.01,2013-02-19 23:00:00,
2013-02-19 15:05:00,46.0,25.9,28.14,NNW,342,4.0,6.3,45,0.00,,---,0.00,VWS V14.01,2013-02-19 23:05:00,
2013-02-19 15:10:00,45.9,25.2,28.14,North,352,8.7,8.7,44,0.00,,---,0.00,VWS V14.01,2013-02-19 23:10:00,
2013-02-19 15:15:00,46.0,25.4,28.14,NNW,344,5.8,6.3,44,0.00,,---,0.00,VWS V14.01,2013-02-19 23:15:00,
2013-02-19 15:20:00,45.7,24.5,28.14,NW,315,8.3,8.3,43,0.00,,---,0.00,VWS V14.01,2013-02-19 23:20:00,
2013-02-19 15:25:00,45.7,24.5,28.14,WNW,290,3.6,3.6,43,0.00,,---,0.00,VWS V14.01,2013-02-19 23:25:00,
2013-02-19 15:30:00,46.0,25.4,28.17,WNW,283,2.7,5.4,44,0.00,,---,0.00,VWS V14.01,2013-02-19 23:30:00,
2013-02-19 15:35:00,46.2,25.0,28.17,NNW,330,2.7,3.1,43,0.00,,---,0.00,VWS V14.01,2013-02-19 23:35:00,
2013-02-19 15:40:00,46.2,25.5,28.17,NW,318,2.7,2.7,44,0.00,,---,0.00,VWS V14.01,2013-02-19 23:40:00,
2013-02-19 15:45:00,46.2,25.0,28.17,WSW,243,4.0,6.3,43,0.00,,---,0.00,VWS V14.01,2013-02-19 23:45:00,
2013-02-19 15:50:00,46.2,25.0,28.17,North,349,5.8,5.8,43,0.00,,---,0.00,VWS V14.01,2013-02-19 23:50:00,
2013-02-19 15:55:00,46.0,25.4,28.17,WNW,290,0.0,0.0,44,0.00,,---,0.00,VWS V14.01,2013-02-19 23:55:00,
2013-02-19 16:00:00,46.2,26.6,28.17,WSW,249,3.6,3.6,46,0.00,,---,0.00,VWS V14.01,2013-02-20 00:00:00,
2013-02-19 16:05:00,46.0,26.4,28.17,WNW,285,5.8,5.8,46,0.00,,---,0.00,VWS V14.01,2013-02-20 00:05:00,
2013-02-19 16:10:00,45.5,24.9,28.17,WNW,302,5.4,5.4,44,0.00,,---,0.00,VWS V14.01,2013-02-20 00:10:00,
2013-02-19 16:15:00,45.0,24.4,28.17,West,270,3.6,4.5,44,0.00,,---,0.00,VWS V14.01,2013-02-20 00:15:00,
2013-02-19 16:20:00,44.6,26.1,28.17,North,357,5.8,5.8,48,0.00,,---,0.00,VWS V14.01,2013-02-20 00:20:00,
2013-02-19 16:25:00,44.2,26.8,28.17,NW,305,3.6,3.6,50,0.00,,---,0.00,VWS V14.01,2013-02-20 00:25:00,
2013-02-19 16:30:00,43.7,27.2,28.17,WNW,295,6.3,6.3,52,0.00,,---,0.00,VWS V14.01,2013-02-20 00:30:00,
2013-02-19 16:35:00,43.9,28.3,28.17,West,266,3.6,3.6,54,0.00,,---,0.00,VWS V14.01,2013-02-20 00:35:00,
2013-02-19 16:40:00,43.9,28.3,28.17,West,272,5.8,5.8,54,0.00,,---,0.00,VWS V14.01,2013-02-20 00:40:00,
2013-02-19 16:45:00,43.7,28.6,28.17,WSW,255,5.8,5.8,55,0.00,,---,0.00,VWS V14.01,2013-02-20 00:45:00,
2013-02-19 16:50:00,43.5,28.4,28.17,West,271,5.8,5.8,55,0.00,,---,0.00,VWS V14.01,2013-02-20 00:50:00,
2013-02-19 16:55:00,43.3,27.8,28.17,WSW,253,6.3,6.3,54,0.00,,---,0.00,VWS V14.01,2013-02-20 00:55:00,
2013-02-19 17:00:00,43.0,28.4,28.17,NNW,331,3.6,5.8,56,0.00,,---,0.00,VWS V14.01,2013-02-20 01:00:00,
2013-02-19 17:05:00,42.4,27.4,28.17,NNW,331,0.0,0.0,55,0.00,,---,0.00,VWS V14.01,2013-02-20 01:05:00,
2013-02-19 17:10:00,42.4,27.4,28.17,NNW,331,0.0,0.0,55,0.00,,---,0.00,VWS V14.01,2013-02-20 01:10:00,
2013-02-19 17:15:00,42.4,27.9,28.20,WNW,288,0.0,0.0,56,0.00,,---,0.00,VWS V14.01,2013-02-20 01:15:00,
2013-02-19 17:20:00,42.6,29.3,28.20,South,183,2.7,2.7,59,0.00,,---,0.00,VWS V14.01,2013-02-20 01:20:00,
2013-02-19 17:25:00,42.4,29.1,28.20,WSW,256,3.1,3.1,59,0.00,,---,0.00,VWS V14.01,2013-02-20 01:25:00,
2013-02-19 17:30:00,42.3,29.0,28.20,West,278,4.9,4.9,59,0.00,,---,0.00,VWS V14.01,2013-02-20 01:30:00,
2013-02-19 17:35:00,42.1,29.2,28.20,WNW,302,0.0,0.0,60,0.00,,---,0.00,VWS V14.01,2013-02-20 01:35:00,
2013-02-19 17:40:00,41.9,29.5,28.20,NNW,336,5.8,6.3,61,0.00,,---,0.00,VWS V14.01,2013-02-20 01:40:00,
2013-02-19 17:45:00,41.7,29.7,28.20,West,281,0.0,0.0,62,0.00,,---,0.00,VWS V14.01,2013-02-20 01:45:00,
2013-02-19 17:50:00,41.7,29.7,28.20,WSW,251,3.6,4.0,62,0.00,,---,0.00,VWS V14.01,2013-02-20 01:50:00,
2013-02-19 17:55:00,41.7,30.1,28.20,WSW,251,0.0,2.7,63,0.00,,---,0.00,VWS V14.01,2013-02-20 01:55:00,
2013-02-19 18:00:00,41.5,29.9,28.20,West,280,5.4,5.4,63,0.00,,---,0.00,VWS V14.01,2013-02-20 02:00:00,
2013-02-19 18:05:00,41.7,30.5,28.20,WSW,248,4.5,4.5,64,0.00,,---,0.00,VWS V14.01,2013-02-20 02:05:00,
2013-02-19 18:10:00,41.7,30.5,28.20,WSW,258,3.6,3.6,64,0.00,,---,0.00,VWS V14.01,2013-02-20 02:10:00,
2013-02-19 18:15:00,41.5,29.9,28.20,North,349,0.0,0.0,63,0.00,,---,0.00,VWS V14.01,2013-02-20 02:15:00,
2013-02-19 18:20:00,41.2,29.6,28.20,West,265,3.6,3.6,63,0.00,,---,0.00,VWS V14.01,2013-02-20 02:20:00,
2013-02-19 18:25:00,41.2,29.9,28.20,WNW,297,0.0,0.0,64,0.00,,---,0.00,VWS V14.01,2013-02-20 02:25:00,
2013-02-19 18:30:00,41.0,29.8,28.20,NW,317,3.6,3.6,64,0.00,,---,0.00,VWS V14.01,2013-02-20 02:30:00,
2013-02-19 18:35:00,40.8,29.6,28.20,WNW,297,0.0,4.9,64,0.00,,---,0.00,VWS V14.01,2013-02-20 02:35:00,
2013-02-19 18:40:00,40.5,29.3,28.20,West,279,0.0,0.0,64,0.00,,---,0.00,VWS V14.01,2013-02-20 02:40:00,
2013-02-19 18:45:00,40.3,29.5,28.23,West,279,0.0,0.0,65,0.00,,---,0.00,VWS V14.01,2013-02-20 02:45:00,
2013-02-19 18:50:00,39.7,29.3,28.23,WNW,287,2.2,2.2,66,0.00,,---,0.00,VWS V14.01,2013-02-20 02:50:00,
2013-02-19 18:55:00,39.4,29.0,28.23,WNW,284,0.0,0.0,66,0.00,,---,0.00,VWS V14.01,2013-02-20 02:55:00,
2013-02-19 19:00:00,39.4,29.7,28.23,West,270,4.9,4.9,68,0.00,,---,0.00,VWS V14.01,2013-02-20 03:00:00,
2013-02-19 19:05:00,39.4,29.7,28.23,WNW,296,3.1,3.1,68,0.00,,---,0.00,VWS V14.01,2013-02-20 03:05:00,
2013-02-19 19:10:00,39.2,29.5,28.23,West,263,3.1,3.1,68,0.00,,---,0.00,VWS V14.01,2013-02-20 03:10:00,
2013-02-19 19:15:00,39.2,29.9,28.23,WNW,291,2.7,3.6,69,0.00,,---,0.00,VWS V14.01,2013-02-20 03:15:00,
2013-02-19 19:20:00,39.0,29.7,28.23,WNW,290,0.0,0.0,69,0.00,,---,0.00,VWS V14.01,2013-02-20 03:20:00,
2013-02-19 19:25:00,38.8,29.5,28.23,WNW,284,3.1,3.1,69,0.00,,---,0.00,VWS V14.01,2013-02-20 03:25:00,
2013-02-19 19:30:00,38.8,29.5,28.23,WNW,282,7.2,7.2,69,0.00,,---,0.00,VWS V14.01,2013-02-20 03:30:00,
2013-02-19 19:35:00,38.8,29.5,28.23,NNW,343,3.6,4.9,69,0.00,,---,0.00,VWS V14.01,2013-02-20 03:35:00,
2013-02-19 19:40:00,38.5,28.9,28.23,NW,316,4.0,4.0,68,0.00,,---,0.00,VWS V14.01,2013-02-20 03:40:00,
2013-02-19 19:45:00,38.7,29.0,28.23,WNW,291,3.6,3.6,68,0.00,,---,0.00,VWS V14.01,2013-02-20 03:45:00,
2013-02-19 19:50:00,38.3,28.7,28.23,NNW,345,3.1,3.1,68,0.00,,---,0.00,VWS V14.01,2013-02-20 03:50:00,
2013-02-19 19:55:00,38.1,28.5,28.23,WNW,284,4.9,4.9,68,0.00,,---,0.00,VWS V14.01,2013-02-20 03:55:00,
2013-02-19 20:00:00,37.9,28.7,28.26,West,279,3.1,3.6,69,0.00,,---,0.00,VWS V14.01,2013-02-20 04:00:00,
2013-02-19 20:05:00,37.8,28.5,28.26,NW,318,4.0,4.0,69,0.00,,---,0.00,VWS V14.01,2013-02-20 04:05:00,
2013-02-19 20:10:00,37.6,28.7,28.26,WSW,256,4.0,5.8,70,0.00,,---,0.00,VWS V14.01,2013-02-20 04:10:00,
2013-02-19 20:15:00,37.4,28.5,28.26,WSW,257,0.0,0.0,70,0.00,,---,0.00,VWS V14.01,2013-02-20 04:15:00,
2013-02-19 20:20:00,37.2,28.7,28.26,NW,322,0.0,0.0,71,0.00,,---,0.00,VWS V14.01,2013-02-20 04:20:00,
2013-02-19 20:25:00,37.2,28.4,28.26,SW,225,0.0,0.0,70,0.00,,---,0.00,VWS V14.01,2013-02-20 04:25:00,
2013-02-19 20:30:00,36.9,28.0,28.26,SW,225,0.0,0.0,70,0.00,,---,0.00,VWS V14.01,2013-02-20 04:30:00,
2013-02-19 20:34:00,36.3,27.1,28.26,SW,225,0.0,0.0,69,0.00,,---,0.00,VWS V14.01,2013-02-20 04:34:00,
2013-02-19 20:39:00,35.8,26.6,28.26,SW,225,0.0,0.0,69,0.00,,---,0.00,VWS V14.01,2013-02-20 04:39:00,
2013-02-19 20:44:00,35.8,26.6,28.26,SW,217,0.0,3.1,69,0.00,,---,0.00,VWS V14.01,2013-02-20 04:44:00,
2013-02-19 20:49:00,35.4,27.3,28.26,SW,217,0.0,0.0,72,0.00,,---,0.00,VWS V14.01,2013-02-20 04:49:00,
2013-02-19 20:54:00,35.1,26.6,28.26,SW,217,0.0,0.0,71,0.00,,---,0.00,VWS V14.01,2013-02-20 04:54:00,
2013-02-19 20:59:00,35.1,26.6,28.29,SW,217,0.0,0.0,71,0.00,,---,0.00,VWS V14.01,2013-02-20 04:59:00,
2013-02-19 21:00:00,35.1,26.6,28.29,SW,217,0.0,0.0,71,0.00,,---,0.00,VWS V14.01,2013-02-20 05:00:00,
2013-02-19 21:05:00,34.7,26.3,28.29,SW,217,0.0,0.0,71,0.00,,---,0.00,VWS V14.01,2013-02-20 05:05:00,
2013-02-19 21:10:00,34.5,26.1,28.29,SW,217,0.0,0.0,71,0.00,,---,0.00,VWS V14.01,2013-02-20 05:10:00,
2013-02-19 21:15:00,34.5,26.1,28.29,SW,217,0.0,0.0,71,0.00,,---,0.00,VWS V14.01,2013-02-20 05:15:00,
2013-02-19 21:20:00,34.3,26.3,28.29,SW,217,0.0,0.0,72,0.00,,---,0.00,VWS V14.01,2013-02-20 05:20:00,
2013-02-19 21:25:00,34.2,26.4,28.29,SW,217,0.0,0.0,73,0.00,,---,0.00,VWS V14.01,2013-02-20 05:25:00,
2013-02-19 21:30:00,34.2,26.8,28.29,SW,217,0.0,0.0,74,0.00,,---,0.00,VWS V14.01,2013-02-20 05:30:00,
2013-02-19 21:35:00,33.8,26.1,28.29,SW,217,0.0,0.0,73,0.00,,---,0.00,VWS V14.01,2013-02-20 05:35:00,
2013-02-19 21:40:00,33.6,26.2,28.29,SW,217,0.0,0.0,74,0.00,,---,0.00,VWS V14.01,2013-02-20 05:40:00,
2013-02-19 21:45:00,33.3,25.9,28.29,SW,217,0.0,0.0,74,0.00,,---,0.00,VWS V14.01,2013-02-20 05:45:00,
2013-02-19 21:50:00,33.1,25.7,28.29,SW,217,0.0,0.0,74,0.00,,---,0.00,VWS V14.01,2013-02-20 05:50:00,
2013-02-19 21:55:00,32.9,25.5,28.29,SW,217,0.0,0.0,74,0.00,,---,0.00,VWS V14.01,2013-02-20 05:55:00,
2013-02-19 22:00:00,32.7,25.7,28.29,SW,217,0.0,0.0,75,0.00,,---,0.00,VWS V14.01,2013-02-20 06:00:00,
2013-02-19 22:05:00,32.7,25.7,28.29,SW,217,0.0,0.0,75,0.00,,---,0.00,VWS V14.01,2013-02-20 06:05:00,
2013-02-19 22:10:00,32.4,25.3,28.29,SW,217,0.0,0.0,75,0.00,,---,0.00,VWS V14.01,2013-02-20 06:10:00,
2013-02-19 22:15:00,32.2,25.2,28.29,SW,217,0.0,0.0,75,0.00,,---,0.00,VWS V14.01,2013-02-20 06:15:00,
2013-02-19 22:20:00,31.8,24.8,28.29,SW,217,0.0,0.0,75,0.00,,---,0.00,VWS V14.01,2013-02-20 06:20:00,
2013-02-19 22:25:00,31.6,24.6,28.29,SW,217,0.0,0.0,75,0.00,,---,0.00,VWS V14.01,2013-02-20 06:25:00,
2013-02-19 22:30:00,31.5,24.5,28.29,SW,217,0.0,0.0,75,0.00,,---,0.00,VWS V14.01,2013-02-20 06:30:00,
2013-02-19 22:35:00,31.3,24.3,28.29,SW,216,0.0,0.0,75,0.00,,---,0.00,VWS V14.01,2013-02-20 06:35:00,
2013-02-19 22:40:00,31.3,24.6,28.29,SW,217,0.0,0.0,76,0.00,,---,0.00,VWS V14.01,2013-02-20 06:40:00,
2013-02-19 22:45:00,31.1,24.1,28.32,SW,217,0.0,0.0,75,0.00,,---,0.00,VWS V14.01,2013-02-20 06:45:00,
2013-02-19 22:50:00,30.7,23.8,28.32,SW,217,0.0,0.0,75,0.00,,---,0.00,VWS V14.01,2013-02-20 06:50:00,
2013-02-19 22:55:00,30.4,23.4,28.32,SW,217,0.0,0.0,75,0.00,,---,0.00,VWS V14.01,2013-02-20 06:55:00,
2013-02-19 23:00:00,30.4,23.7,28.32,SW,217,0.0,0.0,76,0.00,,---,0.00,VWS V14.01,2013-02-20 07:00:00,
2013-02-19 23:05:00,30.2,23.6,28.32,SW,217,0.0,0.0,76,0.00,,---,0.00,VWS V14.01,2013-02-20 07:05:00,
2013-02-19 23:10:00,30.2,23.6,28.32,SW,217,0.0,0.0,76,0.00,,---,0.00,VWS V14.01,2013-02-20 07:10:00,
2013-02-19 23:15:00,30.2,23.9,28.32,SW,217,0.0,0.0,77,0.00,,---,0.00,VWS V14.01,2013-02-20 07:15:00,
2013-02-19 23:20:00,30.0,23.7,28.32,SW,217,0.0,0.0,77,0.00,,---,0.00,VWS V14.01,2013-02-20 07:20:00,
2013-02-19 23:25:00,30.0,23.7,28.32,SW,217,0.0,0.0,77,0.00,,---,0.00,VWS V14.01,2013-02-20 07:25:00,
2013-02-19 23:30:00,30.0,23.7,28.32,SW,217,0.0,0.0,77,0.00,,---,0.00,VWS V14.01,2013-02-20 07:30:00,
2013-02-19 23:35:00,30.0,24.0,28.32,SW,217,0.0,0.0,78,0.00,,---,0.00,VWS V14.01,2013-02-20 07:35:00,
2013-02-19 23:40:00,30.0,24.0,28.32,SW,217,0.0,0.0,78,0.00,,---,0.00,VWS V14.01,2013-02-20 07:40:00,
2013-02-19 23:45:00,30.2,24.2,28.32,SW,217,0.0,0.0,78,0.00,,---,0.00,VWS V14.01,2013-02-20 07:45:00,
2013-02-19 23:50:00,30.4,24.4,28.32,SW,217,0.0,0.0,78,0.00,,---,0.00,VWS V14.01,2013-02-20 07:50:00,
2013-02-19 23:55:00,30.6,24.5,28.32,SW,217,0.0,0.0,78,0.00,,---,0.00,VWS V14.01,2013-02-20 07:55:00,